SCP
0 0 0 0 0 -0 -0 -0 0 -0 -0 -0 0 0 0 0 0 0 0 -0 -0 -0 -0 -0 -0 -0 -0 -0 -0 -0 -0 -0 -0 -0 -0 -0 0 -0 -0 -0 -0 -0 -0 -0 0 0 0 0 0
0 0 0 0 0 0 0 -0 0 -0 -0 -0 0 0 0 0 0 0 0 -0 -0 -0 -0 -0 -0 -0 -0 -0 -0 -0 -0 -0 -0 -0 -0 -0 0 0 -0 -0 -0 -0 -0 -0 -0 0 0 0 0
0 0 0 0 -0 0 0 0 -0 -0 0 0 0 0 0 0 0 -0 -0 0 0 0 0 -0 -0 -0 -0 -0 -0 -0 -0 -0 -0 -0 -0 -0 0 0 0 0 0 0 0 0 0 0 0 0 0
0 0 0 0 -0 0 -0 -0 0 -0 -0 0 0 0 -0 0 0 -0 0 0 0 0 0 -0 -0 -0 -0 -0 -0 -0 -0 -0 -0 -0 -0 -0 -0 0 0 0 0 0 0 0 0 0 0 0 0
0 0 0 0 -0 -0 0 -0 -0 0 0 0 0 0 0 0 0 0 0 0 0 0 0 -0 -1 -0 -0 -0 -0 -0 -0 -0 -0 -0 -0 -0 -0 0 0 0 0 0 0 0 -0 -0 -0 -0 -0
0 0 0 -0 0 0 -0 -0 -0 0 0 0 0 0 -0 -0 -0 0 -0 0 0 0 0 0 -0 -0 -0 -0 -0 -0 -0 -0 -0 -0 -0 -0 -0 -0 0 0 -0 -0 -0 -0 -0 -0 -0 -0 -0
0 0 0 -0 0 0 0 -0 -0 0 0 0 0 0 -0 0 0 -0 -0 0 0 0 0 0 0 0 -0 -0 -0 -0 -0 -0 -0 -0 0 0 -0 -0 -0 -0 -0 -0 -0 -0 -0 -0 -0 -0 0
0 0 0 -0 0 0 0 -0 -0 0 0 0 0 0 -0 -0 0 -0 -0 0 0 0 -0 0 0 0 0 0 -0 -0 -0 -0 -0 -0 0 0 -0 -0 -0 -0 -0 -0 -0 -0 -0 -0 -0 -0 -0
0 0 0 -0 -0 0 0 0 0 0 0 0 0 0 -0 -0 0 -0 -0 0 -0 0 0 0 0 0 0 0 0 0 0 0 0 0 0 0 -0 -0 -0 -0 -0 -0 -0 -0 -0 -0 0 0 0
0 0 -0 -0 0 0 0 0 0 0 0 0 0 0 0 0 0 -1 -1 0 0 0 0 0 0 0 0 0 0 0 0 0 0 0 0 0 -0 -0 -0 -0 -0 -0 -0 -0 -0 -0 -0 0 0
0 0 0 0 0 0 0 0 -0 0 0 0 0 0 0 0 0 -0 -1 0 0 0 0 0 0 0 0 0 0 0 0 0 0 0 0 0 -0 -0 -0 -0 -0 -0 -0 -0 -0 -0 -0 -0 0
0 0 0 0 0 0 0 0 0 0 0 0 -0 0 0 0 0 0 0 1 1 0 0 0 0 0 0 0 0 0 0 0 0 0 0 0 0 -0 -0 -0 -0 -0 -0 -0 -0 -0 -0 -0 -0
0 0 0 0 0 0 0 0 0 0 0 0 0 0 0 -0 0 0 0 0 0 0 0 0 0 0 0 0 0 0 0 0 0 0 0 0 0 0 -0 -0 0 0 -0 -0 -0 -0 -0 -0 0
0 0 -0 -0 0 0 0 0 0 0 0 0 0 0 0 0 -0 0 0 0 0 0 0 0 0 0 0 0 0 0 0 0 0 0 0 0 0 0 0 0 0 0 0 0 0 0 0 0 0
-0 -0 -0 -0 -0 0 0 0 0 0 0 0 0 0 0 0 0 0 0 0 0 0 0 0 0 0 0 0 0 0 0 0 0 0 0 0 0 0 0 0 0 0 0 0 0 0 0 0 0
0 0 0 -0 0 -0 0 0 0 -0 0 0 -0 0 0 0 1 0 0 0 0 0 0 0 0 0 0 0 0 0 0 0 0 0 0 0 0 0 0 0 0 0 0 0 0 0 0 0 0
0 0 0 0 0 -0 0 0 0 0 0 0 -0 -0 0 0 0 0 0 0 0 -0 -0 -0 -0 0 0 0 0 0 0 0 0 0 0 0 0 0 0 0 0 0 0 0 0 0 0 0 0
0 0 0 0 0 0 0 0 0 0 0 0 0 0 0 0 0 0 0 0 -0 -0 -0 0 0 0 0 0 1 1 0 0 0 0 0 0 0 0 0 0 0 0 0 0 0 0 0 0 0
0 0 0 0 0 0 0 0 0 0 0 0 0 0 0 0 0 0 0 0 0 0 -0 -0 -0 1 1 1 1 1 1 1 1 1 0 1 0 0 0 0 0 0 0 0 0 0 0 0 0
0 0 0 0 0 0 0 0 0 0 0 0 0 0 0 0 1 0 0 1 2 1 0 -0 -0 0 1 1 2 2 1 1 1 1 1 1 0 0 0 0 0 0 0 0 0 0 0 0 0
0 0 0 0 0 0 0 0 0 0 0 0 0 0 0 1 1 1 3 3 2 1 2 2 1 1 0 2 2 3 2 2 1 1 1 1 0 1 0 0 0 0 0 0 0 0 0 0 0
0 0 0 0 0 0 0 0 0 0 0 0 0 0 0 1 2 3 2 2 1 2 1 1 1 3 2 2 2 2 1 1 2 2 1 1 1 1 1 0 0 0 0 0 0 0 0 0 0
-0 0 -0 0 0 0 0 0 0 0 0 0 0 0 2 1 2 3 2 0 0 0 0 0 1 1 2 2 2 2 3 3 2 2 2 1 1 1 1 0 0 0 0 0 0 0 0 0 0
-0 -0 -0 0 0 0 0 0 0 0 0 0 0 2 2 0 0 0 0 0 0 0 0 0 0 0 0 1 1 1 1 1 1 1 1 2 1 1 1 1 0 0 0 0 1 1 0 0 0
0 0 0 0 0 0 0 0 0 0 0 0 0 0 0 0 0 0 0 0 0 0 0 0 0 0 0 1 1 1 1 0 0 0 1 1 1 1 1 0 1 1 0 1 1 1 1 1 1
0 0 0 0 0 0 0 0 0 0 0 0 0 0 0 0 0 0 0 0 0 0 0 0 0 0 0 0 0 1 1 1 0 0 0 1 1 1 2 1 1 1 1 1 1 1 1 1 1
0 0 0 0 0 0 0 0 0 0 0 0 0 0 0 0 0 0 0 0 0 0 0 0 0 0 0 0 0 0 0 0 0 0 0 0 0 0 0 1 1 1 1 1 1 1 1 1 1
0 0 0 0 0 -0 0 0 1 0 0 0 0 0 0 0 0 0 0 0 0 0 0 0 0 0 0 0 0 0 0 0 0 0 0 0 0 0 0 0 0 0 1 1 1 1 1 1 1
0 0 0 0 0 0 0 0 0 0 0 0 0 -0 0 0 0 0 0 0 0 0 0 0 0 0 0 0 0 0 0 0 0 0 0 0 0 0 0 0 0 1 1 2 2 1 1 1 1
0 0 0 0 0 0 0 0 0 0 -0 0 -0 -0 -0 0 0 0 0 0 0 0 0 0 0 0 0 0 0 0 0 0 0 0 0 0 0 0 0 0 0 0 1 1 1 1 1 1 1
Wind_Speed_500mb
23 20 19 11 8 8 4 11 13 15 6 5 24 15 20 9 3 8 35 55 64 67 65 60 52 48 45 40 39 38 38 36 33 30 27 26 25 24 23 22 21 20 19 16 15 14 14 16 18
20 11 5 1 7 5 10 8 23 9 21 60 44 28 11 6 12 26 61 52 62 64 67 63 55 49 45 42 39 36 35 34 32 29 26 25 24 24 22 20 19 18 17 15 13 14 15 17 18
14 7 3 8 5 11 10 15 27 25 46 15 16 14 10 12 29 47 45 58 70 63 65 63 56 50 46 42 39 37 34 31 29 27 25 23 23 22 21 20 18 17 15 12 11 12 15 17 18
1 1 3 7 16 22 12 18 23 43 21 19 49 12 10 6 14 32 37 64 68 64 64 64 58 52 47 43 39 35 32 29 27 25 23 22 21 21 20 19 17 15 12 9 10 13 15 17 17
6 0 5 5 15 13 15 48 60 22 16 38 36 12 10 17 27 23 46 66 64 65 67 66 59 53 47 43 40 36 32 28 25 23 21 19 18 18 19 19 17 15 14 12 11 12 15 17 16
5 3 6 6 12 13 19 63 47 23 56 43 30 19 9 44 41 26 50 63 64 58 68 68 63 56 50 44 40 36 32 29 25 23 19 17 16 16 18 19 18 17 17 17 16 15 14 15 16
8 8 9 9 12 17 16 53 20 46 51 26 60 13 21 48 53 39 55 64 62 62 65 69 65 59 52 46 42 37 33 29 25 22 19 17 15 15 16 18 20 20 21 21 25 24 19 16 15
5 8 6 9 3 14 24 45 22 13 10 66 63 16 16 46 42 42 62 64 69 64 67 69 66 62 57 51 45 40 35 30 26 24 21 17 14 13 16 21 21 22 23 26 36 26 29 25 21
7 6 7 12 4 12 44 22 43 12 37 18 11 55 42 63 55 54 74 69 65 67 66 63 61 58 56 53 49 44 40 35 30 26 21 17 14 12 20 21 21 24 28 28 29 24 22 23 21
7 7 15 13 6 13 29 20 23 19 7 7 20 26 56 62 63 73 77 78 70 62 61 62 59 60 56 53 52 49 45 42 35 28 23 19 16 15 21 25 25 27 28 26 21 24 16 14 15
4 10 14 35 50 45 20 21 14 12 10 4 18 31 39 63 58 68 77 72 71 56 50 52 61 59 57 56 54 51 48 42 36 32 26 23 20 19 19 25 21 20 21 20 16 15 16 21 3
3 30 35 50 64 49 18 18 10 6 14 21 10 25 35 54 55 51 74 70 73 58 47 31 48 60 56 53 51 49 46 43 39 33 28 27 24 24 22 26 15 13 13 17 14 12 9 12 14
11 24 43 46 45 34 37 23 14 10 22 26 4 35 39 50 47 46 61 65 65 56 38 26 29 58 56 51 51 49 45 42 36 33 29 28 30 27 22 22 16 8 16 16 16 15 8 11 10
16 16 25 34 47 38 10 13 7 13 18 33 13 29 35 37 45 47 65 68 66 63 48 30 25 47 56 51 48 45 41 37 42 34 29 32 32 33 25 18 18 14 13 22 24 19 10 5 12
19 18 21 19 22 12 25 15 9 26 27 29 38 29 31 55 50 42 73 80 75 70 51 60 37 34 54 36 49 43 32 32 39 30 24 25 23 34 29 26 24 19 18 17 27 24 15 14 13
13 8 11 16 24 25 4 18 19 35 32 32 43 41 14 39 52 59 76 79 67 58 66 66 66 59 62 47 38 48 43 36 26 34 32 26 24 21 30 33 33 29 23 18 21 19 20 19 11
13 9 12 22 4 11 10 24 22 44 36 35 41 33 42 48 45 43 59 70 65 60 63 60 65 59 61 53 52 44 50 44 31 35 41 35 31 26 27 25 33 33 29 23 27 30 29 23 20
10 10 11 12 16 9 18 19 37 43 37 39 41 37 58 57 57 58 59 57 61 57 53 57 62 52 73 61 55 58 50 44 36 35 38 37 36 35 33 32 27 41 39 38 36 31 29 23 19
10 11 23 32 32 8 28 17 28 35 10 15 30 66 61 63 55 52 47 39 50 47 45 52 60 70 63 62 64 62 47 47 42 38 39 43 40 42 41 37 32 39 47 41 34 35 34 31 26
17 23 25 24 22 8 15 18 14 7 8 23 51 66 72 65 67 65 56 55 51 38 49 53 50 46 45 63 75 83 70 59 62 63 60 52 43 41 44 41 38 33 50 56 43 43 40 40 38
27 12 17 19 20 7 6 14 11 17 9 15 41 49 66 80 74 59 55 45 41 44 54 47 41 38 33 58 72 62 50 41 39 53 61 61 57 52 46 46 44 41 41 56 56 49 50 46 46
10 20 24 26 4 14 7 15 6 11 16 15 38 74 73 74 69 64 56 44 35 34 33 45 40 36 32 31 37 39 33 31 36 37 37 38 45 46 52 55 53 51 48 48 57 53 55 54 52
18 20 17 26 12 3 4 6 16 8 20 30 17 52 65 68 72 67 60 55 44 33 26 23 26 36 35 30 25 29 35 36 40 40 42 44 37 38 50 57 55 54 58 57 54 59 64 64 55
16 17 14 4 4 12 11 12 8 10 17 28 6 32 43 59 68 65 57 47 39 30 25 22 18 24 29 25 24 28 37 35 31 39 36 39 34 39 41 45 49 54 48 64 61 61 63 59 55
21 15 10 11 7 13 6 8 9 5 22 34 38 40 41 51 63 52 45 40 33 33 24 20 20 19 14 10 10 18 20 28 39 44 34 41 33 32 33 40 39 38 39 43 56 62 65 64 67
9 8 8 5 7 19 13 11 14 11 38 60 58 56 55 38 49 48 43 46 52 51 49 47 44 24 6 1 4 7 14 20 25 31 35 31 36 32 34 37 41 42 45 46 49 55 70 71 64
10 4 3 11 8 9 13 10 11 4 30 54 58 68 67 60 52 44 51 46 44 42 42 48 45 39 31 27 23 16 9 6 17 18 19 23 28 36 38 44 49 48 44 42 45 38 56 67 68
9 5 4 7 5 11 13 10 10 13 20 32 42 47 53 48 66 65 60 56 47 45 47 42 38 37 30 25 23 22 20 16 15 15 15 20 24 33 41 46 52 55 54 51 46 47 44 54 69
8 7 9 2 5 7 3 12 4 15 24 34 50 38 44 32 55 49 47 35 24 24 28 31 26 19 14 16 18 21 24 25 24 24 26 27 24 23 27 33 40 43 44 46 47 50 48 45 48
9 9 8 7 6 7 9 9 17 8 22 43 59 61 39 20 12 15 6 16 14 18 13 5 9 17 18 21 21 20 23 24 27 28 26 32 35 32 25 22 28 35 37 41 49 47 48 50 51
Wind_Direction_500mb
322 316 316 312 37 63 218 241 344 306 288 130 161 161 125 73 149 177 152 169 173 168 167 166 169 163 157 152 145 140 136 134 130 125 117 108 101 95 92 94 98 102 104 108 114 119 123 126 122
321 316 325 127 98 50 275 192 229 205 108 105 92 83 67 99 109 147 159 171 175 171 169 168 170 168 162 158 154 149 144 139 134 127 118 109 102 94 88 88 91 94 95 94 103 116 126 133 141
320 298 226 115 143 170 233 197 219 252 156 153 114 89 122 134 130 151 164 175 179 174 171 170 172 173 168 164 162 158 153 145 138 131 122 112 103 93 86 85 90 92 92 89 107 116 123 134 143
41 82 121 98 247 246 216 279 233 248 241 139 132 83 102 208 165 182 180 177 178 177 174 172 175 177 174 170 168 165 160 152 144 137 129 119 108 97 88 85 86 85 76 74 102 122 124 125 133
360 266 56 232 263 280 261 255 264 253 92 135 125 149 153 112 156 148 174 179 178 179 176 176 176 180 179 176 173 170 167 160 151 145 137 125 113 102 89 84 84 73 65 72 87 115 132 132 130
10 72 48 266 262 278 284 284 262 107 122 113 105 120 158 144 160 154 172 183 182 187 180 179 178 181 181 180 178 175 171 169 161 154 144 131 116 100 86 81 79 68 66 74 82 93 115 139 148
138 88 226 236 266 336 291 336 169 130 135 156 135 122 169 166 182 188 193 187 186 191 186 183 180 182 183 182 180 179 175 174 168 162 155 146 131 113 91 80 69 70 72 79 86 91 93 106 126
238 99 277 250 8 284 328 355 10 103 169 149 139 168 206 177 190 185 187 190 189 195 195 188 183 184 185 184 184 183 182 180 177 173 168 162 145 123 103 83 73 73 82 93 105 90 79 86 97
236 75 261 255 85 294 317 344 349 16 137 173 205 168 166 157 175 182 185 185 191 193 196 194 189 189 189 187 186 188 188 189 189 184 178 169 156 130 120 83 87 88 91 105 103 96 77 70 62
134 130 233 226 201 261 306 306 340 5 56 105 148 167 162 156 166 187 188 188 187 185 192 200 199 195 194 194 194 192 195 196 196 194 188 181 176 153 127 107 99 105 102 109 103 106 106 78 72
216 205 245 280 279 280 275 298 342 30 344 266 185 164 175 178 167 186 195 199 189 186 185 200 208 205 200 200 200 200 203 204 202 201 198 193 194 183 143 129 118 120 113 118 106 104 84 173 154
215 265 263 277 281 280 260 279 308 337 295 358 174 185 179 171 179 188 191 192 189 189 188 195 213 213 209 209 209 211 211 212 214 212 208 210 208 194 162 146 150 151 146 153 127 126 87 54 192
189 272 287 296 304 289 288 260 235 261 294 311 328 183 178 191 193 182 195 193 189 187 187 192 213 218 219 220 217 217 221 223 225 225 224 223 223 219 200 167 165 212 208 196 183 173 158 143 159
297 271 282 311 308 304 256 262 249 263 284 287 278 211 204 204 200 189 185 192 197 187 176 206 218 225 224 232 225 228 225 230 230 228 229 233 228 223 222 204 207 210 218 213 207 200 195 227 268
328 355 332 313 307 302 304 322 242 257 267 257 272 265 228 221 217 194 186 197 199 191 198 228 210 223 223 232 224 216 224 235 227 214 201 207 217 220 222 221 222 221 227 212 199 199 205 273 245
9 43 1 295 304 293 111 273 262 264 247 270 266 265 249 185 208 200 187 198 201 203 220 192 200 208 214 224 228 225 223 217 226 228 229 227 223 224 229 223 224 228 228 226 243 236 258 266 223
2 262 299 307 305 275 163 272 261 247 233 251 268 259 143 136 148 166 176 177 179 177 181 190 207 218 215 222 224 228 222 227 232 225 235 235 236 244 239 247 226 210 225 241 248 248 258 269 235
252 293 283 266 305 307 290 258 275 228 226 236 240 152 138 131 140 146 158 167 172 172 183 199 213 221 216 212 227 226 222 225 225 226 230 242 250 253 252 252 252 226 222 229 237 246 253 256 245
241 255 268 279 280 281 290 286 276 218 179 222 152 147 137 127 128 138 161 178 175 172 186 200 198 214 208 212 215 209 205 216 218 221 235 246 250 251 249 254 256 240 229 229 237 242 241 244 256
249 256 268 277 273 231 305 304 303 274 179 179 147 139 137 136 136 132 134 139 147 170 183 188 198 207 208 214 217 224 236 236 237 239 240 242 246 245 248 256 257 257 234 234 237 244 241 244 246
269 250 276 249 292 222 323 319 337 313 212 166 156 153 146 144 137 137 135 142 157 136 159 173 186 202 209 217 222 232 234 242 243 241 242 246 249 251 253 249 255 260 242 235 239 243 245 246 246
261 258 264 271 286 279 131 276 292 278 311 37 155 157 153 144 140 142 140 137 142 145 153 165 174 182 184 199 215 229 236 245 255 253 250 252 254 255 254 258 259 260 253 244 241 241 247 249 251
291 280 270 278 253 255 239 101 277 2 360 354 271 154 148 142 138 132 128 127 132 149 155 153 163 172 176 186 209 229 227 237 242 244 251 255 262 262 258 256 253 255 254 251 249 243 246 253 255
330 349 341 312 134 256 238 140 13 11 331 316 206 117 113 112 118 113 109 114 111 115 128 127 132 156 169 192 214 231 243 244 245 248 249 253 261 254 267 267 254 254 258 252 252 245 245 247 254
38 41 346 330 336 250 355 85 83 65 49 36 42 48 84 99 101 101 97 91 86 84 95 118 111 92 103 150 207 245 261 255 260 266 275 265 275 269 259 266 268 263 272 266 251 248 246 245 249
331 119 143 218 341 308 287 182 160 136 80 61 44 52 79 73 103 97 93 94 90 84 78 78 84 97 124 98 254 269 273 269 274 278 279 280 273 277 266 261 262 269 270 270 270 250 250 249 250
311 330 183 145 163 325 287 108 167 152 73 63 47 42 52 62 75 90 94 96 94 85 84 76 71 73 70 72 73 73 50 318 275 303 304 306 286 291 284 273 272 269 264 264 268 271 258 254 250
97 335 358 27 170 209 269 237 151 166 109 90 59 44 35 48 65 71 73 80 84 81 77 82 72 69 55 38 33 29 26 21 12 0 339 321 309 280 284 280 278 276 270 264 260 261 262 258 250
6 67 73 136 178 226 131 292 351 169 152 128 114 81 51 16 73 65 63 66 74 80 79 70 62 53 40 25 11 359 357 353 347 345 337 327 328 326 318 294 275 275 274 259 251 253 255 257 253
130 159 141 158 200 310 297 246 1 249 154 142 134 138 149 152 2 63 100 82 59 88 103 88 29 7 344 324 312 313 322 330 341 338 335 338 331 317 316 316 301 273 263 262 261 258 257 260 254
Wind_Speed_850mb
23 20 19 11 8 8 4 11 13 15 6 5 24 15 20 9 3 8 35 55 64 67 65 60 52 48 45 40 39 38 38 36 33 30 27 26 25 24 23 22 21 20 19 16 15 14 14 16 18
20 11 5 1 7 5 10 8 23 9 21 60 44 28 11 6 12 26 61 52 62 64 67 63 55 49 45 42 39 36 35 34 32 29 26 25 24 24 22 20 19 18 17 15 13 14 15 17 18
14 7 3 8 5 11 10 15 27 25 46 15 16 14 10 12 29 47 45 58 70 63 65 63 56 50 46 42 39 37 34 31 29 27 25 23 23 22 21 20 18 17 15 12 11 12 15 17 18
1 1 3 7 16 22 12 18 23 43 21 19 49 12 10 6 14 32 37 64 68 64 64 64 58 52 47 43 39 35 32 29 27 25 23 22 21 21 20 19 17 15 12 9 10 13 15 17 17
6 0 5 5 15 13 15 48 60 22 16 38 36 12 10 17 27 23 46 66 64 65 67 66 59 53 47 43 40 36 32 28 25 23 21 19 18 18 19 19 17 15 14 12 11 12 15 17 16
5 3 6 6 12 13 19 63 47 23 56 43 30 19 9 44 41 26 50 63 64 58 68 68 63 56 50 44 40 36 32 29 25 23 19 17 16 16 18 19 18 17 17 17 16 15 14 15 16
8 8 9 9 12 17 16 53 20 46 51 26 60 13 21 48 53 39 55 64 62 62 65 69 65 59 52 46 42 37 33 29 25 22 19 17 15 15 16 18 20 20 21 21 25 24 19 16 15
5 8 6 9 3 14 24 45 22 13 10 66 63 16 16 46 42 42 62 64 69 64 67 69 66 62 57 51 45 40 35 30 26 24 21 17 14 13 16 21 21 22 23 26 36 26 29 25 21
7 6 7 12 4 12 44 22 43 12 37 18 11 55 42 63 55 54 74 69 65 67 66 63 61 58 56 53 49 44 40 35 30 26 21 17 14 12 20 21 21 24 28 28 29 24 22 23 21
7 7 15 13 6 13 29 20 23 19 7 7 20 26 56 62 63 73 77 78 70 62 61 62 59 60 56 53 52 49 45 42 35 28 23 19 16 15 21 25 25 27 28 26 21 24 16 14 15
4 10 14 35 50 45 20 21 14 12 10 4 18 31 39 63 58 68 77 72 71 56 50 52 61 59 57 56 54 51 48 42 36 32 26 23 20 19 19 25 21 20 21 20 16 15 16 21 3
3 30 35 50 64 49 18 18 10 6 14 21 10 25 35 54 55 51 74 70 73 58 47 31 48 60 56 53 51 49 46 43 39 33 28 27 24 24 22 26 15 13 13 17 14 12 9 12 14
11 24 43 46 45 34 37 23 14 10 22 26 4 35 39 50 47 46 61 65 65 56 38 26 29 58 56 51 51 49 45 42 36 33 29 28 30 27 22 22 16 8 16 16 16 15 8 11 10
16 16 25 34 47 38 10 13 7 13 18 33 13 29 35 37 45 47 65 68 66 63 48 30 25 47 56 51 48 45 41 37 42 34 29 32 32 33 25 18 18 14 13 22 24 19 10 5 12
19 18 21 19 22 12 25 15 9 26 27 29 38 29 31 55 50 42 73 80 75 70 51 60 37 34 54 36 49 43 32 32 39 30 24 25 23 34 29 26 24 19 18 17 27 24 15 14 13
13 8 11 16 24 25 4 18 19 35 32 32 43 41 14 39 52 59 76 79 67 58 66 66 66 59 62 47 38 48 43 36 26 34 32 26 24 21 30 33 33 29 23 18 21 19 20 19 11
13 9 12 22 4 11 10 24 22 44 36 35 41 33 42 48 45 43 59 70 65 60 63 60 65 59 61 53 52 44 50 44 31 35 41 35 31 26 27 25 33 33 29 23 27 30 29 23 20
10 10 11 12 16 9 18 19 37 43 37 39 41 37 58 57 57 58 59 57 61 57 53 57 62 52 73 61 55 58 50 44 36 35 38 37 36 35 33 32 27 41 39 38 36 31 29 23 19
10 11 23 32 32 8 28 17 28 35 10 15 30 66 61 63 55 52 47 39 50 47 45 52 60 70 63 62 64 62 47 47 42 38 39 43 40 42 41 37 32 39 47 41 34 35 34 31 26
17 23 25 24 22 8 15 18 14 7 8 23 51 66 72 65 67 65 56 55 51 38 49 53 50 46 45 63 75 83 70 59 62 63 60 52 43 41 44 41 38 33 50 56 43 43 40 40 38
27 12 17 19 20 7 6 14 11 17 9 15 41 49 66 80 74 59 55 45 41 44 54 47 41 38 33 58 72 62 50 41 39 53 61 61 57 52 46 46 44 41 41 56 56 49 50 46 46
10 20 24 26 4 14 7 15 6 11 16 15 38 74 73 74 69 64 56 44 35 34 33 45 40 36 32 31 37 39 33 31 36 37 37 38 45 46 52 55 53 51 48 48 57 53 55 54 52
18 20 17 26 12 3 4 6 16 8 20 30 17 52 65 68 72 67 60 55 44 33 26 23 26 36 35 30 25 29 35 36 40 40 42 44 37 38 50 57 55 54 58 57 54 59 64 64 55
16 17 14 4 4 12 11 12 8 10 17 28 6 32 43 59 68 65 57 47 39 30 25 22 18 24 29 25 24 28 37 35 31 39 36 39 34 39 41 45 49 54 48 64 61 61 63 59 55
21 15 10 11 7 13 6 8 9 5 22 34 38 40 41 51 63 52 45 40 33 33 24 20 20 19 14 10 10 18 20 28 39 44 34 41 33 32 33 40 39 38 39 43 56 62 65 64 67
9 8 8 5 7 19 13 11 14 11 38 60 58 56 55 38 49 48 43 46 52 51 49 47 44 24 6 1 4 7 14 20 25 31 35 31 36 32 34 37 41 42 45 46 49 55 70 71 64
10 4 3 11 8 9 13 10 11 4 30 54 58 68 67 60 52 44 51 46 44 42 42 48 45 39 31 27 23 16 9 6 17 18 19 23 28 36 38 44 49 48 44 42 45 38 56 67 68
9 5 4 7 5 11 13 10 10 13 20 32 42 47 53 48 66 65 60 56 47 45 47 42 38 37 30 25 23 22 20 16 15 15 15 20 24 33 41 46 52 55 54 51 46 47 44 54 69
8 7 9 2 5 7 3 12 4 15 24 34 50 38 44 32 55 49 47 35 24 24 28 31 26 19 14 16 18 21 24 25 24 24 26 27 24 23 27 33 40 43 44 46 47 50 48 45 48
9 9 8 7 6 7 9 9 17 8 22 43 59 61 39 20 12 15 6 16 14 18 13 5 9 17 18 21 21 20 23 24 27 28 26 32 35 32 25 22 28 35 37 41 49 47 48 50 51
Wind_Direction_850mb
322 316 316 312 37 63 218 241 344 306 288 130 161 161 125 73 149 177 152 169 173 168 167 166 169 163 157 152 145 140 136 134 130 125 117 108 101 95 92 94 98 102 104 108 114 119 123 126 122
321 316 325 127 98 50 275 192 229 205 108 105 92 83 67 99 109 147 159 171 175 171 169 168 170 168 162 158 154 149 144 139 134 127 118 109 102 94 88 88 91 94 95 94 103 116 126 133 141
320 298 226 115 143 170 233 197 219 252 156 153 114 89 122 134 130 151 164 175 179 174 171 170 172 173 168 164 162 158 153 145 138 131 122 112 103 93 86 85 90 92 92 89 107 116 123 134 143
41 82 121 98 247 246 216 279 233 248 241 139 132 83 102 208 165 182 180 177 178 177 174 172 175 177 174 170 168 165 160 152 144 137 129 119 108 97 88 85 86 85 76 74 102 122 124 125 133
360 266 56 232 263 280 261 255 264 253 92 135 125 149 153 112 156 148 174 179 178 179 176 176 176 180 179 176 173 170 167 160 151 145 137 125 113 102 89 84 84 73 65 72 87 115 132 132 130
10 72 48 266 262 278 284 284 262 107 122 113 105 120 158 144 160 154 172 183 182 187 180 179 178 181 181 180 178 175 171 169 161 154 144 131 116 100 86 81 79 68 66 74 82 93 115 139 148
138 88 226 236 266 336 291 336 169 130 135 156 135 122 169 166 182 188 193 187 186 191 186 183 180 182 183 182 180 179 175 174 168 162 155 146 131 113 91 80 69 70 72 79 86 91 93 106 126
238 99 277 250 8 284 328 355 10 103 169 149 139 168 206 177 190 185 187 190 189 195 195 188 183 184 185 184 184 183 182 180 177 173 168 162 145 123 103 83 73 73 82 93 105 90 79 86 97
236 75 261 255 85 294 317 344 349 16 137 173 205 168 166 157 175 182 185 185 191 193 196 194 189 189 189 187 186 188 188 189 189 184 178 169 156 130 120 83 87 88 91 105 103 96 77 70 62
134 130 233 226 201 261 306 306 340 5 56 105 148 167 162 156 166 187 188 188 187 185 192 200 199 195 194 194 194 192 195 196 196 194 188 181 176 153 127 107 99 105 102 109 103 106 106 78 72
216 205 245 280 279 280 275 298 342 30 344 266 185 164 175 178 167 186 195 199 189 186 185 200 208 205 200 200 200 200 203 204 202 201 198 193 194 183 143 129 118 120 113 118 106 104 84 173 154
215 265 263 277 281 280 260 279 308 337 295 358 174 185 179 171 179 188 191 192 189 189 188 195 213 213 209 209 209 211 211 212 214 212 208 210 208 194 162 146 150 151 146 153 127 126 87 54 192
189 272 287 296 304 289 288 260 235 261 294 311 328 183 178 191 193 182 195 193 189 187 187 192 213 218 219 220 217 217 221 223 225 225 224 223 223 219 200 167 165 212 208 196 183 173 158 143 159
297 271 282 311 308 304 256 262 249 263 284 287 278 211 204 204 200 189 185 192 197 187 176 206 218 225 224 232 225 228 225 230 230 228 229 233 228 223 222 204 207 210 218 213 207 200 195 227 268
328 355 332 313 307 302 304 322 242 257 267 257 272 265 228 221 217 194 186 197 199 191 198 228 210 223 223 232 224 216 224 235 227 214 201 207 217 220 222 221 222 221 227 212 199 199 205 273 245
9 43 1 295 304 293 111 273 262 264 247 270 266 265 249 185 208 200 187 198 201 203 220 192 200 208 214 224 228 225 223 217 226 228 229 227 223 224 229 223 224 228 228 226 243 236 258 266 223
2 262 299 307 305 275 163 272 261 247 233 251 268 259 143 136 148 166 176 177 179 177 181 190 207 218 215 222 224 228 222 227 232 225 235 235 236 244 239 247 226 210 225 241 248 248 258 269 235
252 293 283 266 305 307 290 258 275 228 226 236 240 152 138 131 140 146 158 167 172 172 183 199 213 221 216 212 227 226 222 225 225 226 230 242 250 253 252 252 252 226 222 229 237 246 253 256 245
241 255 268 279 280 281 290 286 276 218 179 222 152 147 137 127 128 138 161 178 175 172 186 200 198 214 208 212 215 209 205 216 218 221 235 246 250 251 249 254 256 240 229 229 237 242 241 244 256
249 256 268 277 273 231 305 304 303 274 179 179 147 139 137 136 136 132 134 139 147 170 183 188 198 207 208 214 217 224 236 236 237 239 240 242 246 245 248 256 257 257 234 234 237 244 241 244 246
269 250 276 249 292 222 323 319 337 313 212 166 156 153 146 144 137 137 135 142 157 136 159 173 186 202 209 217 222 232 234 242 243 241 242 246 249 251 253 249 255 260 242 235 239 243 245 246 246
261 258 264 271 286 279 131 276 292 278 311 37 155 157 153 144 140 142 140 137 142 145 153 165 174 182 184 199 215 229 236 245 255 253 250 252 254 255 254 258 259 260 253 244 241 241 247 249 251
291 280 270 278 253 255 239 101 277 2 360 354 271 154 148 142 138 132 128 127 132 149 155 153 163 172 176 186 209 229 227 237 242 244 251 255 262 262 258 256 253 255 254 251 249 243 246 253 255
330 349 341 312 134 256 238 140 13 11 331 316 206 117 113 112 118 113 109 114 111 115 128 127 132 156 169 192 214 231 243 244 245 248 249 253 261 254 267 267 254 254 258 252 252 245 245 247 254
38 41 346 330 336 250 355 85 83 65 49 36 42 48 84 99 101 101 97 91 86 84 95 118 111 92 103 150 207 245 261 255 260 266 275 265 275 269 259 266 268 263 272 266 251 248 246 245 249
331 119 143 218 341 308 287 182 160 136 80 61 44 52 79 73 103 97 93 94 90 84 78 78 84 97 124 98 254 269 273 269 274 278 279 280 273 277 266 261 262 269 270 270 270 250 250 249 250
311 330 183 145 163 325 287 108 167 152 73 63 47 42 52 62 75 90 94 96 94 85 84 76 71 73 70 72 73 73 50 318 275 303 304 306 286 291 284 273 272 269 264 264 268 271 258 254 250
97 335 358 27 170 209 269 237 151 166 109 90 59 44 35 48 65 71 73 80 84 81 77 82 72 69 55 38 33 29 26 21 12 0 339 321 309 280 284 280 278 276 270 264 260 261 262 258 250
6 67 73 136 178 226 131 292 351 169 152 128 114 81 51 16 73 65 63 66 74 80 79 70 62 53 40 25 11 359 357 353 347 345 337 327 328 326 318 294 275 275 274 259 251 253 255 257 253
130 159 141 158 200 310 297 246 1 249 154 142 134 138 149 152 2 63 100 82 59 88 103 88 29 7 344 324 312 313 322 330 341 338 335 338 331 317 316 316 301 273 263 262 261 258 257 260 254